Date String (YYYY-MM-DD hh:mm:ss) UTC,Instrument flags,Ambient pressure (hPa),Sample flow (lpm),Bypass flow (lpm),Sample temperature (°C),Ambient temperature (°C),ASC tube jacket temperature (°C),LED temperature (°C),Box temperature (°C),Sample RH (%),Span deviation,Mass concentration (μg/m³),Mass concentration (μg/m³),Mass concentration (μg/m³)
DateTimeUTC,F1_M11,P_M11,Q1_M11,Q2_M11,T1_M11,T2_M11,T3_M11,T4_M11,T5_M11,U1_M11,ZSPAN_M11,X0_M11,X2_M11,X1_M11
2022-04-04 23:00:00,,0812.5,5.02,0.00,27.5,26.7,00.0,36.6,29.3,05.8,0000.0,0010.56,0004.16,0001.90
2022-04-04 23:01:00,,0812.4,5.00,0.00,27.5,26.7,00.0,36.6,29.3,05.8,0000.0,0010.32,0004.10,0001.91
2022-04-04 23:02:00,,0812.5,4.99,0.00,27.5,26.7,00.0,36.6,29.3,05.8,0000.0,0010.28,0004.12,0001.91
2022-04-04 23:03:00,,0812.4,5.01,0.00,27.5,26.7,00.0,36.6,29.3,05.8,0000.0,0010.29,0004.14,0001.94
2022-04-04 23:04:00,,0812.4,5.01,0.00,27.5,26.7,00.0,36.5,29.3,05.8,0000.0,0010.17,0004.11,0001.94
2022-04-04 23:05:00,,0812.4,5.00,0.00,27.5,26.7,00.0,36.5,29.2,05.9,0000.0,0009.95,0004.04,0001.93
2022-04-04 23:06:00,,0812.4,4.99,0.00,27.5,26.7,00.0,36.5,29.2,06.0,0000.0,0009.39,0003.98,0001.94
2022-04-04 23:07:00,,0812.4,5.02,0.00,27.5,26.7,00.0,36.5,29.2,05.9,0000.0,0009.52,0004.01,0001.94
2022-04-04 23:08:00,,0812.4,4.99,0.00,27.5,26.7,00.0,36.5,29.2,05.8,0000.0,0009.62,0003.99,0001.94
2022-04-04 23:09:00,,0812.4,5.00,0.00,27.5,26.7,00.0,36.5,29.2,06.0,0000.0,0009.77,0004.02,0001.97
2022-04-04 23:10:00,,0812.4,5.00,0.00,27.5,26.7,00.0,36.5,29.2,06.1,0000.0,0010.03,0003.98,0001.98
2022-04-04 23:11:00,,0812.3,4.99,0.00,27.5,26.7,00.0,36.5,29.3,06.1,0000.0,0010.48,0004.00,0002.00
2022-04-04 23:12:00,,0812.3,5.01,0.00,27.5,26.8,00.0,36.5,29.3,06.1,0000.0,0010.43,0004.00,0002.00
2022-04-04 23:13:00,,0812.3,4.99,0.00,27.5,26.8,00.0,36.5,29.3,06.0,0000.0,0010.34,0003.96,0002.00
2022-04-04 23:14:00,,0812.2,4.99,0.00,27.6,26.8,00.0,36.5,29.3,05.8,0000.0,0009.89,0003.88,0001.98
2022-04-04 23:15:00,,0812.1,5.01,0.00,27.6,26.8,00.0,36.5,29.4,05.7,0000.0,0009.81,0003.87,0001.99
2022-04-04 23:16:00,,0812.0,5.00,0.00,27.6,26.8,00.0,36.5,29.4,05.7,0000.0,0009.98,0003.93,0001.99
2022-04-04 23:17:00,,0811.9,4.99,0.00,27.6,26.9,00.0,36.5,29.5,05.8,0000.0,0010.30,0004.03,0002.00
2022-04-04 23:18:00,,0812.0,5.01,0.00,27.6,26.9,00.0,36.5,29.4,05.8,0000.0,0010.26,0004.01,0001.98
2022-04-04 23:19:00,,0812.0,4.99,0.00,27.6,26.9,00.0,36.5,29.5,05.7,0000.0,0010.12,0003.99,0001.97
2022-04-04 23:20:00,,0812.0,5.01,0.00,27.6,26.9,00.0,36.5,29.4,05.7,0000.0,0010.07,0003.89,0001.96
2022-04-04 23:21:00,,0811.9,5.01,0.00,27.6,26.8,00.0,36.5,29.4,05.7,0000.0,0010.23,0003.91,0001.96
2022-04-04 23:22:00,,0812.0,4.98,0.00,27.6,26.8,00.0,36.5,29.4,05.8,0000.0,0009.80,0003.94,0001.96
2022-04-04 23:23:00,,0811.9,5.01,0.00,27.6,26.8,00.0,36.5,29.4,05.7,0000.0,0010.05,0004.00,0001.95
2022-04-04 23:24:00,,0811.9,4.99,0.00,27.6,26.8,00.0,36.5,29.4,05.8,0000.0,0010.15,0004.02,0001.94
2022-04-04 23:25:00,,0811.9,5.01,0.00,27.6,26.8,00.0,36.5,29.4,05.9,0000.0,0010.54,0004.07,0001.95
2022-04-04 23:26:00,,0811.9,4.99,0.00,27.6,26.9,00.0,36.5,29.4,05.7,0000.0,0010.51,0004.07,0001.95
2022-04-04 23:27:00,,0811.9,5.01,0.00,27.6,26.9,00.0,36.6,29.5,05.5,0000.0,0010.41,0004.01,0001.95
2022-04-04 23:28:00,,0811.9,4.99,0.00,27.7,26.9,00.0,36.6,29.5,05.5,0000.0,0010.04,0003.90,0001.94
2022-04-04 23:29:00,,0811.9,5.00,0.00,27.7,26.9,00.0,36.6,29.5,05.6,0000.0,0010.16,0003.87,0001.94
2022-04-04 23:30:00,,0811.9,5.00,0.00,27.7,27.0,00.0,36.6,29.5,05.7,0000.0,0010.34,0003.91,0001.93
2022-04-04 23:31:00,,0811.9,4.99,0.00,27.7,27.0,00.0,36.6,29.5,05.7,0000.0,0010.69,0003.98,0001.91
2022-04-04 23:32:00,,0811.9,5.00,0.00,27.7,27.0,00.0,36.6,29.6,05.6,0000.0,0010.63,0004.02,0001.92
2022-04-04 23:33:00,,0811.9,5.01,0.00,27.8,27.1,00.0,36.6,29.6,05.4,0000.0,0010.83,0004.02,0001.90
2022-04-04 23:34:00,,0811.9,4.99,0.00,27.8,27.1,00.0,36.6,29.6,05.4,0000.0,0010.74,0003.97,0001.89
2022-04-04 23:35:00,,0811.8,4.99,0.00,27.8,27.1,00.0,36.7,29.6,05.4,0000.0,0010.59,0003.94,0001.87
2022-04-04 23:36:00,,0811.7,5.00,0.00,27.8,27.1,00.0,36.7,29.7,05.4,0000.0,0010.47,0003.94,0001.85
2022-04-04 23:37:00,,0811.7,5.01,0.00,27.8,27.1,00.0,36.7,29.7,05.4,0000.0,0010.44,0003.93,0001.83
2022-04-04 23:38:00,,0811.7,4.99,0.00,27.8,27.1,00.0,36.7,29.7,05.4,0000.0,0010.51,0003.98,0001.85
2022-04-04 23:39:00,,0811.7,5.00,0.00,27.8,27.1,00.0,36.7,29.7,05.5,0000.0,0010.61,0004.04,0001.87
2022-04-04 23:40:00,,0811.5,5.00,0.00,27.9,27.2,00.0,36.7,29.7,05.6,0000.0,0010.64,0004.11,0001.86
2022-04-04 23:41:00,,0811.5,5.00,0.00,27.9,27.2,00.0,36.7,29.7,05.6,0000.0,0010.71,0004.09,0001.86
2022-04-04 23:42:00,,0811.5,5.01,0.00,27.9,27.2,00.0,36.7,29.8,05.6,0000.0,0010.88,0004.03,0001.87
2022-04-04 23:43:00,,0811.4,4.98,0.00,27.9,27.2,00.0,36.7,29.8,05.7,0000.0,0011.97,0004.00,0001.85
2022-04-04 23:44:00,,0811.5,4.99,0.00,27.9,27.2,00.0,36.8,29.7,05.8,0000.0,0012.01,0003.97,0001.85
2022-04-04 23:45:00,,0811.5,5.01,0.00,27.9,27.2,00.0,36.8,29.7,05.7,0000.0,0012.12,0004.02,0001.86
2022-04-04 23:46:00,,0811.5,5.00,0.00,27.9,27.2,00.0,36.8,29.7,05.7,0000.0,0012.37,0004.07,0001.86
2022-04-04 23:47:00,,0811.4,4.99,0.00,27.9,27.2,00.0,36.8,29.7,05.5,0000.0,0012.55,0004.04,0001.86
2022-04-04 23:48:00,,0811.3,5.00,0.00,27.9,27.2,00.0,36.8,29.7,05.7,0000.0,0013.36,0004.06,0001.86
2022-04-04 23:49:00,,0811.3,5.01,0.00,27.9,27.2,00.0,36.8,29.7,05.8,0000.0,0013.47,0004.05,0001.86
2022-04-04 23:50:00,,0811.3,4.98,0.00,27.9,27.2,00.0,36.8,29.7,05.7,0000.0,0013.50,0004.03,0001.86
2022-04-04 23:51:00,,0811.3,4.99,0.00,27.9,27.2,00.0,36.8,29.7,05.6,0000.0,0013.51,0004.06,0001.87
2022-04-04 23:52:00,,0811.4,5.01,0.00,27.9,27.2,00.0,36.8,29.7,05.7,0000.0,0013.54,0004.07,0001.89
2022-04-04 23:53:00,,0811.4,4.99,0.00,27.9,27.2,00.0,36.8,29.7,05.7,0000.0,0013.38,0004.06,0001.88
2022-04-04 23:54:00,,0811.4,5.01,0.00,27.9,27.2,00.0,36.8,29.8,05.8,0000.0,0012.34,0004.08,0001.89
2022-04-04 23:55:00,,0811.4,4.99,0.00,27.9,27.2,00.0,36.8,29.8,05.6,0000.0,0011.87,0004.08,0001.89
2022-04-04 23:56:00,,0811.4,5.00,0.00,27.9,27.2,00.0,36.8,29.8,05.6,0000.0,0011.89,0004.05,0001.88
2022-04-04 23:57:00,,0811.3,5.01,0.00,27.9,27.2,00.0,36.8,29.8,05.7,0000.0,0012.41,0003.99,0001.89
2022-04-04 23:58:00,,0811.2,4.99,0.00,27.9,27.2,00.0,36.8,29.8,05.7,0000.0,0012.66,0003.96,0001.91
2022-04-04 23:59:00,,0811.1,5.00,0.00,27.9,27.2,00.0,36.8,29.8,05.6,0000.0,0012.47,0003.98,0001.92
